Year,Month,Day,Hour,Minute,Value (Times are PST for temperature in C)
2018,08,08,00,00,18.10
2018,08,08,00,01,18.10
2018,08,08,00,02,18.10
2018,08,08,00,03,18.10
2018,08,08,00,04,18.10
2018,08,08,00,05,18.10
2018,08,08,00,06,18.10
2018,08,08,00,07,18.10
2018,08,08,00,08,18.10
2018,08,08,00,09,18.10
2018,08,08,00,10,18.00
2018,08,08,00,11,18.00
2018,08,08,00,12,18.00
2018,08,08,00,13,18.00
2018,08,08,00,14,17.90
2018,08,08,00,15,17.90
2018,08,08,00,16,17.90
2018,08,08,00,17,17.90
2018,08,08,00,18,17.90
2018,08,08,00,19,17.90
2018,08,08,00,20,17.90
2018,08,08,00,21,17.90
2018,08,08,00,22,17.80
2018,08,08,00,23,17.80
2018,08,08,00,24,17.80
2018,08,08,00,25,17.80
2018,08,08,00,26,17.80
2018,08,08,00,27,17.80
2018,08,08,00,28,17.80
2018,08,08,00,29,17.80
2018,08,08,00,30,17.80
2018,08,08,00,31,17.80
2018,08,08,00,32,17.80
2018,08,08,00,33,17.80
2018,08,08,00,34,17.70
2018,08,08,00,35,17.70
2018,08,08,00,36,17.70
2018,08,08,00,37,17.70
2018,08,08,00,38,17.70
2018,08,08,00,39,17.70
2018,08,08,00,40,17.60
2018,08,08,00,41,17.60
2018,08,08,00,42,17.60
2018,08,08,00,43,17.60
2018,08,08,00,44,17.60
2018,08,08,00,45,17.60
2018,08,08,00,46,17.60
2018,08,08,00,47,17.50
2018,08,08,00,48,17.50
2018,08,08,00,49,17.50
2018,08,08,00,50,17.50
2018,08,08,00,51,17.50
2018,08,08,00,52,17.50
2018,08,08,00,53,17.50
2018,08,08,00,54,17.50
2018,08,08,00,55,17.50
2018,08,08,00,56,17.50
2018,08,08,00,57,17.50
2018,08,08,00,58,17.50
2018,08,08,00,59,17.40
2018,08,08,01,00,17.40
2018,08,08,01,01,17.40
2018,08,08,01,02,17.40
2018,08,08,01,03,17.40
2018,08,08,01,04,17.40
2018,08,08,01,05,17.40
2018,08,08,01,06,17.40
2018,08,08,01,07,17.40
2018,08,08,01,08,17.40
2018,08,08,01,09,17.30
2018,08,08,01,10,17.40
2018,08,08,01,11,17.30
2018,08,08,01,12,17.40
2018,08,08,01,13,17.40
2018,08,08,01,14,17.40
2018,08,08,01,15,17.40
2018,08,08,01,16,17.40
2018,08,08,01,17,17.40
2018,08,08,01,18,17.40
2018,08,08,01,19,17.40
2018,08,08,01,20,17.40
2018,08,08,01,21,17.30
2018,08,08,01,22,17.30
2018,08,08,01,23,17.30
2018,08,08,01,24,17.30
2018,08,08,01,25,17.30
2018,08,08,01,26,17.30
2018,08,08,01,27,17.30
2018,08,08,01,28,17.30
2018,08,08,01,29,17.30
2018,08,08,01,30,17.30
2018,08,08,01,31,17.20
2018,08,08,01,32,17.20
2018,08,08,01,33,17.20
2018,08,08,01,34,17.10
2018,08,08,01,35,17.10
2018,08,08,01,36,17.10
2018,08,08,01,37,17.10
2018,08,08,01,38,17.10
2018,08,08,01,39,17.10
2018,08,08,01,40,17.10
2018,08,08,01,41,17.00
2018,08,08,01,42,17.00
2018,08,08,01,43,17.00
2018,08,08,01,44,17.00
2018,08,08,01,45,16.90
2018,08,08,01,46,16.90
2018,08,08,01,47,16.90
2018,08,08,01,48,16.90
2018,08,08,01,49,16.90
2018,08,08,01,50,16.80
2018,08,08,01,51,16.80
2018,08,08,01,52,16.80
2018,08,08,01,53,16.80
2018,08,08,01,54,16.80
2018,08,08,01,55,16.80
2018,08,08,01,56,16.80
2018,08,08,01,57,16.80
2018,08,08,01,58,16.80
2018,08,08,01,59,16.80
2018,08,08,02,00,16.80
2018,08,08,02,01,16.70
2018,08,08,02,02,16.70
2018,08,08,02,03,16.70
2018,08,08,02,04,16.80
2018,08,08,02,05,16.80
2018,08,08,02,06,16.80
2018,08,08,02,07,16.80
2018,08,08,02,08,16.90
2018,08,08,02,09,16.90
2018,08,08,02,10,16.90
2018,08,08,02,11,16.90
2018,08,08,02,12,16.90
2018,08,08,02,13,16.90
2018,08,08,02,14,16.90
2018,08,08,02,15,16.90
2018,08,08,02,16,16.90
2018,08,08,02,17,16.90
2018,08,08,02,18,16.90
2018,08,08,02,19,16.90
2018,08,08,02,20,16.90
2018,08,08,02,21,16.90
2018,08,08,02,22,16.90
2018,08,08,02,23,16.90
2018,08,08,02,24,16.90
2018,08,08,02,25,16.90
2018,08,08,02,26,16.90
2018,08,08,02,27,16.90
2018,08,08,02,28,16.90
2018,08,08,02,29,16.90
2018,08,08,02,30,16.90
2018,08,08,02,31,16.90
2018,08,08,02,32,16.80
2018,08,08,02,33,16.80
2018,08,08,02,34,16.80
2018,08,08,02,35,16.80
2018,08,08,02,36,16.80
2018,08,08,02,37,16.80
2018,08,08,02,38,16.80
2018,08,08,02,39,16.80
2018,08,08,02,40,16.70
2018,08,08,02,41,16.70
2018,08,08,02,42,16.70
2018,08,08,02,43,16.70
2018,08,08,02,44,16.70
2018,08,08,02,45,16.70
2018,08,08,02,46,16.70
2018,08,08,02,47,16.60
2018,08,08,02,48,16.60
2018,08,08,02,49,16.60
2018,08,08,02,50,16.60
2018,08,08,02,51,16.60
2018,08,08,02,52,16.50
2018,08,08,02,53,16.40
2018,08,08,02,54,16.40
2018,08,08,02,55,16.40
2018,08,08,02,56,16.30
2018,08,08,02,57,16.30
2018,08,08,02,58,16.20
2018,08,08,02,59,16.20
2018,08,08,03,00,16.10
2018,08,08,03,01,16.10
2018,08,08,03,02,16.10
2018,08,08,03,03,16.00
2018,08,08,03,04,15.90
2018,08,08,03,05,15.90
2018,08,08,03,06,15.80
2018,08,08,03,07,15.80
2018,08,08,03,08,15.80
2018,08,08,03,09,15.80
2018,08,08,03,10,15.70
2018,08,08,03,11,15.70
2018,08,08,03,12,15.70
2018,08,08,03,13,15.70
2018,08,08,03,14,15.70
2018,08,08,03,15,15.70
2018,08,08,03,16,15.70
2018,08,08,03,17,15.70
2018,08,08,03,18,15.70
2018,08,08,03,19,15.70
2018,08,08,03,20,15.70
2018,08,08,03,21,15.60
2018,08,08,03,22,15.60
2018,08,08,03,23,15.60
2018,08,08,03,24,15.60
2018,08,08,03,25,15.60
2018,08,08,03,26,15.60
2018,08,08,03,27,15.60
2018,08,08,03,28,15.60
2018,08,08,03,29,15.60
2018,08,08,03,30,15.60
2018,08,08,03,31,15.60
2018,08,08,03,32,15.60
2018,08,08,03,33,15.60
2018,08,08,03,34,15.60
2018,08,08,03,35,15.60
2018,08,08,03,36,15.60
2018,08,08,03,37,15.50
2018,08,08,03,38,15.50
2018,08,08,03,39,15.50
2018,08,08,03,40,15.50
2018,08,08,03,41,15.50
2018,08,08,03,42,15.40
2018,08,08,03,43,15.40
2018,08,08,03,44,15.40
2018,08,08,03,45,15.40
2018,08,08,03,46,15.40
2018,08,08,03,47,15.40
2018,08,08,03,48,15.40
2018,08,08,03,49,15.40
2018,08,08,03,50,15.40
2018,08,08,03,51,15.30
2018,08,08,03,52,15.30
2018,08,08,03,53,15.30
2018,08,08,03,54,15.30
2018,08,08,03,55,15.30
2018,08,08,03,56,15.30
2018,08,08,03,57,15.30
2018,08,08,03,58,15.30
2018,08,08,03,59,15.30
2018,08,08,04,00,15.30
2018,08,08,04,01,15.30
2018,08,08,04,02,15.30
2018,08,08,04,03,15.30
2018,08,08,04,04,15.30
2018,08,08,04,05,15.30
2018,08,08,04,06,15.40
2018,08,08,04,07,15.40
2018,08,08,04,08,15.40
2018,08,08,04,09,15.40
2018,08,08,04,10,15.40
2018,08,08,04,11,15.40
2018,08,08,04,12,15.30
2018,08,08,04,13,15.40
2018,08,08,04,14,15.40
2018,08,08,04,15,15.40
2018,08,08,04,16,15.40
2018,08,08,04,17,15.40
2018,08,08,04,18,15.40
2018,08,08,04,19,15.30
2018,08,08,04,20,15.30
2018,08,08,04,21,15.30
2018,08,08,04,22,15.30
2018,08,08,04,23,15.30
2018,08,08,04,24,15.30
2018,08,08,04,25,15.30
2018,08,08,04,26,15.30
2018,08,08,04,27,15.30
2018,08,08,04,28,15.30
2018,08,08,04,29,15.30
2018,08,08,04,30,15.20
2018,08,08,04,31,15.20
2018,08,08,04,32,15.20
2018,08,08,04,33,15.20
2018,08,08,04,34,15.20
2018,08,08,04,35,15.30
2018,08,08,04,36,15.30
2018,08,08,04,37,15.30
2018,08,08,04,38,15.30
2018,08,08,04,39,15.30
2018,08,08,04,40,15.30
2018,08,08,04,41,15.30
2018,08,08,04,42,15.30
2018,08,08,04,43,15.30
2018,08,08,04,44,15.30
2018,08,08,04,45,15.30
2018,08,08,04,46,15.20
2018,08,08,04,47,15.20
2018,08,08,04,48,15.20
2018,08,08,04,49,15.20
2018,08,08,04,50,15.20
2018,08,08,04,51,15.20
2018,08,08,04,52,15.20
2018,08,08,04,53,15.20
2018,08,08,04,54,15.20
2018,08,08,04,55,15.20
2018,08,08,04,56,15.20
2018,08,08,04,57,15.20
2018,08,08,04,58,15.10
2018,08,08,04,59,15.10
2018,08,08,05,00,15.10
2018,08,08,05,01,15.10
2018,08,08,05,02,15.10
2018,08,08,05,03,15.10
2018,08,08,05,04,15.10
2018,08,08,05,05,15.10
2018,08,08,05,06,15.10
2018,08,08,05,07,15.10
2018,08,08,05,08,15.00
2018,08,08,05,09,15.00
2018,08,08,05,10,15.00
2018,08,08,05,11,15.00
2018,08,08,05,12,14.90
2018,08,08,05,13,14.90
2018,08,08,05,14,14.90
2018,08,08,05,15,14.80
2018,08,08,05,16,14.80
2018,08,08,05,17,14.80
2018,08,08,05,18,14.80
2018,08,08,05,19,14.80
2018,08,08,05,20,14.70
2018,08,08,05,21,14.70
2018,08,08,05,22,14.70
2018,08,08,05,23,14.70
2018,08,08,05,24,14.70
2018,08,08,05,25,14.70
2018,08,08,05,26,14.70
2018,08,08,05,27,14.70
2018,08,08,05,28,14.70
2018,08,08,05,29,14.70
2018,08,08,05,30,14.70
2018,08,08,05,31,14.70
2018,08,08,05,32,14.70
2018,08,08,05,33,14.70
2018,08,08,05,34,14.70
2018,08,08,05,35,14.70
2018,08,08,05,36,14.60
2018,08,08,05,37,14.60
2018,08,08,05,38,14.60
2018,08,08,05,39,14.60
2018,08,08,05,40,14.60
2018,08,08,05,41,14.60
2018,08,08,05,42,14.60
2018,08,08,05,43,14.60
2018,08,08,05,44,14.60
2018,08,08,05,45,14.50
2018,08,08,05,46,14.50
2018,08,08,05,47,14.50
2018,08,08,05,48,14.50
2018,08,08,05,49,14.40
2018,08,08,05,50,14.40
2018,08,08,05,51,14.40
2018,08,08,05,52,14.40
2018,08,08,05,53,14.50
2018,08,08,05,54,14.50
2018,08,08,05,55,14.60
2018,08,08,05,56,14.60
2018,08,08,05,57,14.60
2018,08,08,05,58,14.60
2018,08,08,05,59,14.60
2018,08,08,06,00,14.60
2018,08,08,06,01,14.60
2018,08,08,06,02,14.60
2018,08,08,06,03,14.60
2018,08,08,06,04,14.60
2018,08,08,06,05,14.60
2018,08,08,06,06,14.60
2018,08,08,06,07,14.60
2018,08,08,06,08,14.60
2018,08,08,06,09,14.70
2018,08,08,06,10,14.60
2018,08,08,06,11,14.60
2018,08,08,06,12,14.60
2018,08,08,06,13,14.60
2018,08,08,06,14,14.60
2018,08,08,06,15,14.50
2018,08,08,06,16,14.50
2018,08,08,06,17,14.50
2018,08,08,06,18,14.50
2018,08,08,06,19,14.50
2018,08,08,06,20,14.50
2018,08,08,06,21,14.50
2018,08,08,06,22,14.40
2018,08,08,06,23,14.40
2018,08,08,06,24,14.40
2018,08,08,06,25,14.40
2018,08,08,06,26,14.40
2018,08,08,06,27,14.40
2018,08,08,06,28,14.40
2018,08,08,06,29,14.50
2018,08,08,06,30,14.50
2018,08,08,06,31,14.50
2018,08,08,06,32,14.50
2018,08,08,06,33,14.50
2018,08,08,06,34,14.60
2018,08,08,06,35,14.60
2018,08,08,06,36,14.60
2018,08,08,06,37,14.60
2018,08,08,06,38,14.60
2018,08,08,06,39,14.70
2018,08,08,06,40,14.70
2018,08,08,06,41,14.70
2018,08,08,06,42,14.70
2018,08,08,06,43,14.70
2018,08,08,06,44,14.70
2018,08,08,06,45,14.80
2018,08,08,06,46,14.80
2018,08,08,06,47,14.90
2018,08,08,06,48,14.90
2018,08,08,06,49,15.00
2018,08,08,06,50,15.00
2018,08,08,06,51,15.10
2018,08,08,06,52,15.20
2018,08,08,06,53,15.30
2018,08,08,06,54,15.30
2018,08,08,06,55,15.40
2018,08,08,06,56,15.50
2018,08,08,06,57,15.60
2018,08,08,06,58,15.70
2018,08,08,06,59,15.80
2018,08,08,07,00,15.90
2018,08,08,07,01,16.00
2018,08,08,07,02,16.10
2018,08,08,07,03,16.10
2018,08,08,07,04,16.10
2018,08,08,07,05,16.20
2018,08,08,07,06,16.20
2018,08,08,07,07,16.30
2018,08,08,07,08,16.30
2018,08,08,07,09,16.30
2018,08,08,07,10,16.40
2018,08,08,07,11,16.40
2018,08,08,07,12,16.50
2018,08,08,07,13,16.60
2018,08,08,07,14,16.60
2018,08,08,07,15,16.70
2018,08,08,07,16,16.70
2018,08,08,07,17,16.80
2018,08,08,07,18,16.80
2018,08,08,07,19,16.90
2018,08,08,07,20,16.90
2018,08,08,07,21,17.00
2018,08,08,07,22,17.00
2018,08,08,07,23,17.10
2018,08,08,07,24,17.10
2018,08,08,07,25,17.10
2018,08,08,07,26,17.20
2018,08,08,07,27,17.20
2018,08,08,07,28,17.30
2018,08,08,07,29,17.30
2018,08,08,07,30,17.30
2018,08,08,07,31,17.40
2018,08,08,07,32,17.50
2018,08,08,07,33,17.50
2018,08,08,07,34,17.60
2018,08,08,07,35,17.70
2018,08,08,07,36,17.70
2018,08,08,07,37,17.80
2018,08,08,07,38,17.80
2018,08,08,07,39,17.90
2018,08,08,07,40,17.90
2018,08,08,07,41,17.90
2018,08,08,07,42,18.00
2018,08,08,07,43,18.10
2018,08,08,07,44,18.10
2018,08,08,07,45,18.10
2018,08,08,07,46,18.20
2018,08,08,07,47,18.20
2018,08,08,07,48,18.30
2018,08,08,07,49,18.30
2018,08,08,07,50,18.40
2018,08,08,07,51,18.50
2018,08,08,07,52,18.50
2018,08,08,07,53,18.60
2018,08,08,07,54,18.70
2018,08,08,07,55,18.70
2018,08,08,07,56,18.80
2018,08,08,07,57,18.90
2018,08,08,07,58,19.00
2018,08,08,07,59,19.10
2018,08,08,08,00,19.20
2018,08,08,08,01,19.30
2018,08,08,08,02,19.40
2018,08,08,08,03,19.50
2018,08,08,08,04,19.50
2018,08,08,08,05,19.50
2018,08,08,08,06,19.50
2018,08,08,08,07,19.50
2018,08,08,08,08,19.50
2018,08,08,08,09,19.40
2018,08,08,08,10,19.50
2018,08,08,08,11,19.50
2018,08,08,08,12,19.50
2018,08,08,08,13,19.60
2018,08,08,08,14,19.60
2018,08,08,08,15,19.60
2018,08,08,08,16,19.60
2018,08,08,08,17,19.60
2018,08,08,08,18,19.70
2018,08,08,08,19,19.70
2018,08,08,08,20,19.70
2018,08,08,08,21,19.70
2018,08,08,08,22,19.80
2018,08,08,08,23,19.80
2018,08,08,08,24,19.80
2018,08,08,08,25,19.80
2018,08,08,08,26,19.90
2018,08,08,08,27,19.90
2018,08,08,08,28,19.90
2018,08,08,08,29,20.00
2018,08,08,08,30,20.10
2018,08,08,08,31,20.10
2018,08,08,08,32,20.20
2018,08,08,08,33,20.20
2018,08,08,08,34,20.30
2018,08,08,08,35,20.40
2018,08,08,08,36,20.40
2018,08,08,08,37,20.50
2018,08,08,08,38,20.60
2018,08,08,08,39,20.70
2018,08,08,08,40,20.70
2018,08,08,08,41,20.80
2018,08,08,08,42,20.90
2018,08,08,08,43,21.00
2018,08,08,08,44,21.20
2018,08,08,08,45,21.30
2018,08,08,08,46,21.50
2018,08,08,08,47,21.60
2018,08,08,08,48,21.80
2018,08,08,08,49,21.90
2018,08,08,08,50,22.00
2018,08,08,08,51,22.10
2018,08,08,08,52,22.20
2018,08,08,08,53,22.30
2018,08,08,08,54,22.30
2018,08,08,08,55,22.40
2018,08,08,08,56,22.50
2018,08,08,08,57,22.50
2018,08,08,08,58,22.60
2018,08,08,08,59,22.70
2018,08,08,09,00,22.80
2018,08,08,09,01,22.90
2018,08,08,09,02,23.10
2018,08,08,09,03,23.20
2018,08,08,09,04,23.30
2018,08,08,09,05,23.30
2018,08,08,09,06,23.40
2018,08,08,09,07,23.40
2018,08,08,09,08,23.50
2018,08,08,09,09,23.50
2018,08,08,09,10,23.60
2018,08,08,09,11,23.60
2018,08,08,09,12,23.60
2018,08,08,09,13,23.60
2018,08,08,09,14,23.70
2018,08,08,09,15,23.70
2018,08,08,09,16,23.80
2018,08,08,09,17,23.80
2018,08,08,09,18,23.90
2018,08,08,09,19,23.90
2018,08,08,09,20,24.00
2018,08,08,09,21,24.10
2018,08,08,09,22,24.20
2018,08,08,09,23,24.30
2018,08,08,09,24,24.40
2018,08,08,09,25,24.50
2018,08,08,09,26,24.50
2018,08,08,09,27,24.60
2018,08,08,09,28,24.60
2018,08,08,09,29,24.60
2018,08,08,09,30,24.50
2018,08,08,09,31,24.40
2018,08,08,09,32,24.30
2018,08,08,09,33,24.30
2018,08,08,09,34,24.30
2018,08,08,09,35,24.30
2018,08,08,09,36,24.40
2018,08,08,09,37,24.40
2018,08,08,09,38,24.40
2018,08,08,09,39,24.50
2018,08,08,09,40,24.60
2018,08,08,09,41,24.60
2018,08,08,09,42,24.70
2018,08,08,09,43,24.70
2018,08,08,09,44,24.80
2018,08,08,09,45,24.80
2018,08,08,09,46,24.80
2018,08,08,09,47,24.90
2018,08,08,09,48,25.00
2018,08,08,09,49,25.10
2018,08,08,09,50,25.20
2018,08,08,09,51,25.30
2018,08,08,09,52,25.30
2018,08,08,09,53,25.40
2018,08,08,09,54,25.40
2018,08,08,09,55,25.50
2018,08,08,09,56,25.50
2018,08,08,09,57,25.60
2018,08,08,09,58,25.60
2018,08,08,09,59,25.60
2018,08,08,10,00,25.50
2018,08,08,10,01,25.50
2018,08,08,10,02,25.40
2018,08,08,10,03,25.40
2018,08,08,10,04,25.40
2018,08,08,10,05,25.30
2018,08,08,10,06,25.30
2018,08,08,10,07,25.20
2018,08,08,10,08,25.10
2018,08,08,10,09,25.10
2018,08,08,10,10,25.20
2018,08,08,10,11,25.40
2018,08,08,10,12,25.50
2018,08,08,10,13,25.60
2018,08,08,10,14,25.60
2018,08,08,10,15,25.60
2018,08,08,10,16,25.70
2018,08,08,10,17,25.80
2018,08,08,10,18,25.90
2018,08,08,10,19,25.90
2018,08,08,10,20,25.80
2018,08,08,10,21,25.80
2018,08,08,10,22,25.80
2018,08,08,10,23,25.90
2018,08,08,10,24,25.90
2018,08,08,10,25,26.00
2018,08,08,10,26,26.00
2018,08,08,10,27,26.00
2018,08,08,10,28,26.10
2018,08,08,10,29,26.20
2018,08,08,10,30,26.20
2018,08,08,10,31,26.30
2018,08,08,10,32,26.30
2018,08,08,10,33,26.30
2018,08,08,10,34,26.30
2018,08,08,10,35,26.40
2018,08,08,10,36,26.50
2018,08,08,10,37,26.50
2018,08,08,10,38,26.60
2018,08,08,10,39,26.60
2018,08,08,10,40,26.60
2018,08,08,10,41,26.50
2018,08,08,10,42,26.50
2018,08,08,10,43,26.50
2018,08,08,10,44,26.50
2018,08,08,10,45,26.60
2018,08,08,10,46,26.50
2018,08,08,10,47,26.50
2018,08,08,10,48,26.50
2018,08,08,10,49,26.40
2018,08,08,10,50,26.30
2018,08,08,10,51,26.30
2018,08,08,10,52,26.30
2018,08,08,10,53,26.30
2018,08,08,10,54,26.30
2018,08,08,10,55,26.30
2018,08,08,10,56,26.20
2018,08,08,10,57,26.10
2018,08,08,10,58,26.00
2018,08,08,10,59,25.90
2018,08,08,11,00,25.80
2018,08,08,11,01,25.80
2018,08,08,11,02,25.90
2018,08,08,11,03,26.00
2018,08,08,11,04,26.00
2018,08,08,11,05,26.00
2018,08,08,11,06,26.00
2018,08,08,11,07,26.10
2018,08,08,11,08,26.10
2018,08,08,11,09,26.10
2018,08,08,11,10,26.00
2018,08,08,11,11,26.00
2018,08,08,11,12,26.00
2018,08,08,11,13,26.00
2018,08,08,11,14,26.00
2018,08,08,11,15,26.10
2018,08,08,11,16,26.20
2018,08,08,11,17,26.20
2018,08,08,11,18,26.30
2018,08,08,11,19,26.30
2018,08,08,11,20,26.40
2018,08,08,11,21,26.40
2018,08,08,11,22,26.50
2018,08,08,11,23,26.50
2018,08,08,11,24,26.40
2018,08,08,11,25,26.40
2018,08,08,11,26,26.40
2018,08,08,11,27,26.40
2018,08,08,11,28,26.40
2018,08,08,11,29,26.40
2018,08,08,11,30,26.40
2018,08,08,11,31,26.40
2018,08,08,11,32,26.50
2018,08,08,11,33,26.70
2018,08,08,11,34,26.80
2018,08,08,11,35,26.80
2018,08,08,11,36,26.80
2018,08,08,11,37,26.80
2018,08,08,11,38,26.80
2018,08,08,11,39,26.80
2018,08,08,11,40,26.80
2018,08,08,11,41,26.80
2018,08,08,11,42,26.90
2018,08,08,11,43,27.00
2018,08,08,11,44,27.10
2018,08,08,11,45,27.10
2018,08,08,11,46,27.10
2018,08,08,11,47,27.10
2018,08,08,11,48,27.10
2018,08,08,11,49,27.20
2018,08,08,11,50,27.20
2018,08,08,11,51,27.10
2018,08,08,11,52,27.20
2018,08,08,11,53,27.20
2018,08,08,11,54,27.30
2018,08,08,11,55,27.20
2018,08,08,11,56,27.20
2018,08,08,11,57,27.30
2018,08,08,11,58,27.40
2018,08,08,11,59,27.40
2018,08,08,12,00,27.30
2018,08,08,12,01,27.30
2018,08,08,12,02,27.20
2018,08,08,12,03,27.30
2018,08,08,12,04,27.30
2018,08,08,12,05,27.40
2018,08,08,12,06,27.50
2018,08,08,12,07,27.50
2018,08,08,12,08,27.60
2018,08,08,12,09,27.60
2018,08,08,12,10,27.60
2018,08,08,12,11,27.60
2018,08,08,12,12,27.60
2018,08,08,12,13,27.70
2018,08,08,12,14,27.60
2018,08,08,12,15,27.60
2018,08,08,12,16,27.70
2018,08,08,12,17,27.70
2018,08,08,12,18,27.70
2018,08,08,12,19,27.70
2018,08,08,12,20,27.60
2018,08,08,12,21,27.50
2018,08,08,12,22,27.50
2018,08,08,12,23,27.50
2018,08,08,12,24,27.50
2018,08,08,12,25,27.50
2018,08,08,12,26,27.50
2018,08,08,12,27,27.50
2018,08,08,12,28,27.50
2018,08,08,12,29,27.30
2018,08,08,12,30,27.20
2018,08,08,12,31,27.10
2018,08,08,12,32,27.00
2018,08,08,12,33,26.90
2018,08,08,12,34,26.80
2018,08,08,12,35,26.80
2018,08,08,12,36,26.80
2018,08,08,12,37,26.90
2018,08,08,12,38,26.90
2018,08,08,12,39,27.00
2018,08,08,12,40,27.00
2018,08,08,12,41,27.00
2018,08,08,12,42,27.00
2018,08,08,12,43,27.00
2018,08,08,12,44,27.10
2018,08,08,12,45,27.10
2018,08,08,12,46,27.20
2018,08,08,12,47,27.20
2018,08,08,12,48,27.10
2018,08,08,12,49,27.10
2018,08,08,12,50,27.20
2018,08,08,12,51,27.30
2018,08,08,12,52,27.30
2018,08,08,12,53,27.30
2018,08,08,12,54,27.40
2018,08,08,12,55,27.60
2018,08,08,12,56,27.70
2018,08,08,12,57,27.80
2018,08,08,12,58,27.80
2018,08,08,12,59,27.80
2018,08,08,13,00,27.80
2018,08,08,13,01,27.80
2018,08,08,13,02,27.80
2018,08,08,13,03,27.70
2018,08,08,13,04,27.70
2018,08,08,13,05,27.80
2018,08,08,13,06,27.90
2018,08,08,13,07,28.10
2018,08,08,13,08,28.20
2018,08,08,13,09,28.30
2018,08,08,13,10,28.40
2018,08,08,13,11,28.50
2018,08,08,13,12,28.40
2018,08,08,13,13,28.40
2018,08,08,13,14,28.30
2018,08,08,13,15,28.20
2018,08,08,13,16,28.10
2018,08,08,13,17,28.10
2018,08,08,13,18,28.00
2018,08,08,13,19,28.00
2018,08,08,13,20,27.90
2018,08,08,13,21,27.80
2018,08,08,13,22,27.70
2018,08,08,13,23,27.70
2018,08,08,13,24,27.60
2018,08,08,13,25,27.70
2018,08,08,13,26,27.70
2018,08,08,13,27,27.60
2018,08,08,13,28,27.60
2018,08,08,13,29,27.60
2018,08,08,13,30,27.50
2018,08,08,13,31,27.60
2018,08,08,13,32,27.60
2018,08,08,13,33,27.80
2018,08,08,13,34,27.80
2018,08,08,13,35,27.90
2018,08,08,13,36,27.90
2018,08,08,13,37,27.90
2018,08,08,13,38,28.00
2018,08,08,13,39,28.20
2018,08,08,13,40,28.40
2018,08,08,13,41,28.70
2018,08,08,13,42,28.90
2018,08,08,13,43,29.20
2018,08,08,13,44,29.30
2018,08,08,13,45,29.20
2018,08,08,13,46,29.20
2018,08,08,13,47,29.10
2018,08,08,13,48,29.20
2018,08,08,13,49,29.10
2018,08,08,13,50,29.10
2018,08,08,13,51,29.00
2018,08,08,13,52,28.90
2018,08,08,13,53,29.00
2018,08,08,13,54,29.10
2018,08,08,13,55,29.20
2018,08,08,13,56,29.20
2018,08,08,13,57,29.30
2018,08,08,13,58,29.30
2018,08,08,13,59,29.30
2018,08,08,14,00,29.30
2018,08,08,14,01,29.50
2018,08,08,14,02,29.60
2018,08,08,14,03,29.80
2018,08,08,14,04,29.80
2018,08,08,14,05,29.80
2018,08,08,14,06,29.70
2018,08,08,14,07,29.60
2018,08,08,14,08,29.60
2018,08,08,14,09,29.60
2018,08,08,14,10,29.60
2018,08,08,14,11,29.50
2018,08,08,14,12,29.50
2018,08,08,14,13,29.60
2018,08,08,14,14,29.60
2018,08,08,14,15,29.70
2018,08,08,14,16,29.80
2018,08,08,14,17,29.80
2018,08,08,14,18,29.80
2018,08,08,14,19,29.80
2018,08,08,14,20,29.90
2018,08,08,14,21,30.00
2018,08,08,14,22,30.10
2018,08,08,14,23,30.30
2018,08,08,14,24,30.40
2018,08,08,14,25,30.30
2018,08,08,14,26,30.40
2018,08,08,14,27,30.40
2018,08,08,14,28,30.40
2018,08,08,14,29,30.40
2018,08,08,14,30,30.50
2018,08,08,14,31,30.60
2018,08,08,14,32,30.50
2018,08,08,14,33,30.50
2018,08,08,14,34,30.50
2018,08,08,14,35,30.50
2018,08,08,14,36,30.60
2018,08,08,14,37,30.60
2018,08,08,14,38,30.60
2018,08,08,14,39,30.70
2018,08,08,14,40,30.80
2018,08,08,14,41,30.90
2018,08,08,14,42,30.90
2018,08,08,14,43,30.80
2018,08,08,14,44,30.40
2018,08,08,14,45,30.00
2018,08,08,14,46,29.60
2018,08,08,14,47,29.20
2018,08,08,14,48,29.00
2018,08,08,14,49,28.80
2018,08,08,14,50,28.80
2018,08,08,14,51,28.80
2018,08,08,14,52,28.70
2018,08,08,14,53,28.50
2018,08,08,14,54,28.30
2018,08,08,14,55,28.30
2018,08,08,14,56,28.30
2018,08,08,14,57,28.40
2018,08,08,14,58,28.50
2018,08,08,14,59,28.60
2018,08,08,15,00,28.50
2018,08,08,15,01,28.50
2018,08,08,15,02,28.60
2018,08,08,15,03,28.60
2018,08,08,15,04,28.60
2018,08,08,15,05,28.60
2018,08,08,15,06,28.60
2018,08,08,15,07,28.60
2018,08,08,15,08,28.60
2018,08,08,15,09,28.50
2018,08,08,15,10,28.50
2018,08,08,15,11,28.50
2018,08,08,15,12,28.50
2018,08,08,15,13,28.50
2018,08,08,15,14,28.60
2018,08,08,15,15,28.70
2018,08,08,15,16,28.80
2018,08,08,15,17,28.80
2018,08,08,15,18,28.90
2018,08,08,15,19,28.90
2018,08,08,15,20,28.90
2018,08,08,15,21,28.90
2018,08,08,15,22,28.90
2018,08,08,15,23,28.90
2018,08,08,15,24,28.90
2018,08,08,15,25,29.00
2018,08,08,15,26,29.10
2018,08,08,15,27,29.10
2018,08,08,15,28,29.10
2018,08,08,15,29,29.10
2018,08,08,15,30,29.10
2018,08,08,15,31,29.10
2018,08,08,15,32,29.00
2018,08,08,15,33,29.00
2018,08,08,15,34,28.90
2018,08,08,15,35,28.90
2018,08,08,15,36,28.80
2018,08,08,15,37,28.70
2018,08,08,15,38,28.60
2018,08,08,15,39,28.60
2018,08,08,15,40,28.60
2018,08,08,15,41,28.60
2018,08,08,15,42,28.70
2018,08,08,15,43,28.70
2018,08,08,15,44,28.80
2018,08,08,15,45,28.80
2018,08,08,15,46,28.80
2018,08,08,15,47,28.80
2018,08,08,15,48,28.70
2018,08,08,15,49,28.80
2018,08,08,15,50,28.80
2018,08,08,15,51,28.80
2018,08,08,15,52,28.90
2018,08,08,15,53,29.00
2018,08,08,15,54,29.00
2018,08,08,15,55,29.10
2018,08,08,15,56,29.10
2018,08,08,15,57,29.10
2018,08,08,15,58,29.10
2018,08,08,15,59,29.10
2018,08,08,16,00,29.20
2018,08,08,16,01,29.30
2018,08,08,16,02,29.30
2018,08,08,16,03,29.40
2018,08,08,16,04,29.40
2018,08,08,16,05,29.30
2018,08,08,16,06,29.20
2018,08,08,16,07,29.20
2018,08,08,16,08,29.10
2018,08,08,16,09,29.00
2018,08,08,16,10,28.90
2018,08,08,16,11,28.90
2018,08,08,16,12,28.90
2018,08,08,16,13,28.80
2018,08,08,16,14,28.80
2018,08,08,16,15,28.80
2018,08,08,16,16,28.80
2018,08,08,16,17,28.80
2018,08,08,16,18,28.80
2018,08,08,16,19,28.80
2018,08,08,16,20,28.90
2018,08,08,16,21,28.90
2018,08,08,16,22,28.80
2018,08,08,16,23,28.70
2018,08,08,16,24,28.70
2018,08,08,16,25,28.80
2018,08,08,16,26,28.80
2018,08,08,16,27,28.90
2018,08,08,16,28,29.00
2018,08,08,16,29,29.00
2018,08,08,16,30,29.10
2018,08,08,16,31,29.20
2018,08,08,16,32,29.20
2018,08,08,16,33,29.20
2018,08,08,16,34,29.10
2018,08,08,16,35,29.00
2018,08,08,16,36,28.90
2018,08,08,16,37,28.80
2018,08,08,16,38,28.70
2018,08,08,16,39,28.60
2018,08,08,16,40,28.60
2018,08,08,16,41,28.70
2018,08,08,16,42,28.70
2018,08,08,16,43,28.80
2018,08,08,16,44,28.80
2018,08,08,16,45,28.90
2018,08,08,16,46,29.00
2018,08,08,16,47,29.00
2018,08,08,16,48,29.10
2018,08,08,16,49,29.10
2018,08,08,16,50,29.20
2018,08,08,16,51,29.20
2018,08,08,16,52,29.30
2018,08,08,16,53,29.40
2018,08,08,16,54,29.40
2018,08,08,16,55,29.40
2018,08,08,16,56,29.50
2018,08,08,16,57,29.50
2018,08,08,16,58,29.60
2018,08,08,16,59,29.60
2018,08,08,17,00,29.50
2018,08,08,17,01,29.50
2018,08,08,17,02,29.50
2018,08,08,17,03,29.40
2018,08,08,17,04,29.30
2018,08,08,17,05,29.20
2018,08,08,17,06,29.20
2018,08,08,17,07,29.20
2018,08,08,17,08,29.30
2018,08,08,17,09,29.30
2018,08,08,17,10,29.30
2018,08,08,17,11,29.30
2018,08,08,17,12,29.20
2018,08,08,17,13,29.20
2018,08,08,17,14,29.10
2018,08,08,17,15,29.10
2018,08,08,17,16,29.10
2018,08,08,17,17,29.10
2018,08,08,17,18,29.10
2018,08,08,17,19,29.10